Tracking 35275 objects as of 9-Sep-2026
HD Live streaming from Space Station
objects crossing your sky now

NOAA 17 DEB


NOAA 17 DEB is no longer on orbit


NORAD ID: 49491
Int'l Code: 2002-032DV
Launch date: June 24, 2002
Source: United States (US)
Launch site: AIR FORCE WESTERN TEST RANGE (AFWTR)
Decay date: 2024-05-16

Note: This is SATELLITE DEBRIS
Your satellite tracking list
Your tracking list is empty




NASA's NSSDC Master Catalog

Two Line Element Set (TLE):
1 49491U 02032DV  24137.48359181  .00453188  00000-0  25636-1 0  9992
2 49491  98.7175 152.9676 0018441  41.4341 318.8279 15.10694463167851
Source of the keplerian elements: AFSPC